[[{"header":{"parameterUnit":"m.s-1","parameterCategory":1,"la1":30.2991,"la2":30.254,"lo1":-89.0895,"lo2":-89.0444,"dy":0.0017,"dx":0.0017,"nx":28,"ny":28,"refTime":"2025-01-03T09:00:00:Z","depth":0,"parameterNumber":2,"parameterNumberName":"U-component_of_WINDS"},"data":[0,0,0,0,0,0,0,0,0,0,0,0,0,0,0,0,0,0,0,0,0,0,0,0,0,0,0,0,0,0,0,0,0,0,0,0,0,0,0,0,0,0,0,0,0,0,0,0,0,0,0,0,0,0,0,0,0,0,0.4121,0.4121,0,0.4185,0.4185,0.4186,0.4233,0.4234,0.4234,0.4235,0.4301,0.4302,0.4304,0,0,0,0,0,0,0,0,0,0,0,0,0,0.404,0.4041,0.412,0.4121,0.4122,0.4185,0.4185,0.4186,0.4233,0.4234,0.4234,0.4235,0.43,0.4302,0.4304,0,0,0,0,0,0,0,0,0,0,0,0,0,0.4087,0.4042,0.412,0.4153,0.4157,0.4184,0.4185,0.4187,0.4233,0.4234,0.4234,0.4235,0.43,0.4302,0.4304,0.4304,0,0,0.431,0.4311,0,0,0,0,0,0,0,0,0.4084,0.409,0.4147,0.4151,0.4155,0.4202,0.4181,0.4226,0.4233,0.4204,0.4235,0.4235,0.4267,0.4272,0.4283,0.4308,0.431,0.431,0.4312,0.4313,0.4313,0,0,0,0,0,0,0,0.4081,0.4087,0.4146,0.4148,0.4153,0.4165,0.4172,0.419,0.4232,0.4207,0.421,0.4217,0.427,0.4281,0.4285,0.4311,0.431,0.4312,0.4313,0.4314,0.434,0.434,0,0,0,0,0,0,0.4072,0.4084,0.4144,0.4148,0.412,0.4166,0.4174,0.4186,0.4231,0.4239,0.4217,0.4219,0.4277,0.4282,0.4287,0.4291,0.4313,0.4315,0.4316,0.4341,0.434,0.434,0,0,0,0,0,0,0.407,0.4077,0.4141,0.4117,0.4126,0.4167,0.418,0.4187,0.4198,0.4239,0.4247,0.422,0.4278,0.4284,0.43,0.4294,0.4315,0.4317,0.4342,0.4341,0.434,0.4297,0,0,0,0,0,0,0.4068,0.4076,0.4076,0.4117,0.4127,0.4152,0.4179,0.4188,0.4202,0.4205,0.4244,0.4252,0.4279,0.4297,0.4302,0.4297,0.4319,0.4342,0.4341,0.434,0.43,0.4295,0.4292,0,0,0,0,0,0.4065,0.4062,0.4076,0.4083,0.4128,0.4152,0.4158,0.4189,0.4201,0.4201,0.4228,0.425,0.4294,0.4298,0.4304,0.43,0.4343,0.4341,0.434,0.4301,0.4296,0.4292,0,0,0,0,0,0,0.402,0.4068,0.4084,0.4094,0.4118,0.416,0.4161,0.4182,0.4204,0.4207,0.4245,0.4253,0.4264,0.4284,0.4288,0.4303,0.4321,0.4321,0.4289,0.4285,0.4281,0.4275,0.4321,0,0,0,0,0,0.4011,0.4025,0.4067,0.4072,0.4083,0.412,0.4131,0.4153,0.418,0.4191,0.4218,0.4244,0.4264,0.4276,0.4296,0.4303,0.4312,0.4304,0.43,0.4296,0.4295,0.4301,0.4297,0.4336,0.4336,0.4336,0,0,0.3992,0.4021,0.4028,0.4063,0.4085,0.4099,0.4128,0.4143,0.4154,0.4193,0.4209,0.4231,0.4262,0.4273,0.428,0.429,0.4287,0.4295,0.4291,0.4293,0.4299,0.4295,0.4292,0.4335,0.4335,0.4335,0,0,0.3966,0.3989,0.3996,0.4017,0.4049,0.4074,0.4076,0.4114,0.413,0.4147,0.4177,0.4191,0.4224,0.4245,0.426,0.4244,0.4265,0.4249,0.4228,0.4233,0.423,0.4227,0.4221,0.4218,0.4249,0.4249,0.4249,0,0.394,0.3962,0.3996,0.4009,0.4024,0.4061,0.4068,0.4087,0.4124,0.4134,0.4145,0.4187,0.4211,0.4228,0.4224,0.4235,0.4238,0.4244,0.4227,0.4225,0.4223,0.4218,0.4215,0.4246,0.4247,0.4247,0.4247,0,0.3928,0.3943,0.3945,0.3979,0.3995,0.4005,0.4041,0.4052,0.4074,0.4097,0.4114,0.4144,0.4171,0.4178,0.4198,0.4198,0.4203,0.422,0.4239,0.4217,0.4212,0.421,0.4243,0.4244,0.4245,0.4245,0,0,0.3873,0.3927,0.3927,0.3944,0.3983,0.3996,0.4008,0.4034,0.4043,0.4069,0.4079,0.4107,0.4124,0.4141,0.4165,0.4169,0.4154,0.4186,0.4188,0.4178,0.4155,0.414,0.4137,0.4169,0.4169,0.4169,0.4152,0,0.3852,0.3874,0.3906,0.3918,0.3933,0.3969,0.398,0.4005,0.4028,0.4045,0.4071,0.4089,0.411,0.4121,0.4127,0.4154,0.4149,0.4156,0.4179,0.4179,0.4168,0.4134,0.4119,0.4101,0.415,0.415,0.415,0,0.383,0.3853,0.3866,0.3905,0.3912,0.3921,0.3948,0.3964,0.3994,0.401,0.403,0.4056,0.4071,0.4089,0.411,0.4114,0.4126,0.4141,0.4141,0.4143,0.4162,0.4134,0.4097,0.4093,0.4147,0.4147,0.4147,0,0.3787,0.3822,0.3834,0.3848,0.3893,0.3898,0.3918,0.3949,0.3963,0.3987,0.3996,0.4022,0.4036,0.4056,0.4088,0.4098,0.4106,0.4127,0.412,0.4119,0.4118,0.4117,0.408,0.4128,0.4128,0.4128,0.4128,0,0.376,0.3766,0.3816,0.3823,0.3832,0.3869,0.3877,0.39,0.3927,0.394,0.3974,0.3985,0.4028,0.4045,0.4071,0.4085,0.4091,0.4105,0.4111,0.4101,0.4099,0.4108,0.4109,0.4127,0.4128,0.4128,0.4128,0,0.3712,0.3746,0.3762,0.3804,0.3815,0.3819,0.3856,0.3865,0.3891,0.3907,0.3913,0.3953,0.3975,0.401,0.4042,0.406,0.4068,0.408,0.4057,0.4061,0.4052,0.4052,0.4018,0.4015,0.4065,0.4065,0.4065,0,0.3691,0.3697,0.374,0.3751,0.3769,0.3787,0.3801,0.3839,0.3853,0.3889,0.3893,0.3918,0.3939,0.3972,0.4005,0.403,0.4042,0.4028,0.4045,0.4035,0.404,0.4039,0.4039,0.4023,0.4023,0.4022,0.4022,0,0.365,0.3667,0.3687,0.3712,0.3729,0.3751,0.3775,0.3782,0.3826,0.384,0.3862,0.3879,0.3912,0.3936,0.3966,0.3986,0.4011,0.4016,0.4016,0.4004,0.399,0.3997,0.4045,0.4016,0.4017,0.4017,0.4018,0.4018,0.3615,0.3622,0.3653,0.3674,0.3697,0.3718,0.3729,0.3756,0.3776,0.3805,0.3827,0.3848,0.3879,0.3922,0.3941,0.3959,0.397,0.3969,0.3969,0.3968,0.3963,0.3989,0.3965,0.3965,0.3965,0.3965,0.3965,0,0.3575,0.3597,0.3616,0.3649,0.3665,0.3688,0.3716,0.3729,0.3746,0.3774,0.3794,0.382,0.3844,0.3879,0.3906,0.3913,0.3925,0.3918,0.3917,0.3922,0.3953,0.395,0.3908,0.3908,0.3908,0.3908,0.3908,0.3908,0.3556,0.3568,0.3589,0.3613,0.3636,0.3657,0.3671,0.3691,0.3713,0.3741,0.3761,0.3784,0.3814,0.3843,0.3866,0.3876,0.3884,0.3873,0.3887,0.3914,0.392,0.3924,0.3922,0.3875,0.3875,0.3854,0.3854,0.3854]},{"header":{"parameterUnit":"m.s-1","parameterCategory":1,"la1":30.2991,"la2":30.254,"lo1":-89.0895,"lo2":-89.0444,"dy":0.0017,"dx":0.0017,"nx":28,"ny":28,"refTime":"2025-01-03T09:00:00:Z","depth":0,"parameterNumber":3,"parameterNumberName":"V-component_of_WINDS"},"data":[0,0,0,0,0,0,0,0,0,0,0,0,0,0,0,0,0,0,0,0,0,0,0,0,0,0,0,0,0,0,0,0,0,0,0,0,0,0,0,0,0,0,0,0,0,0,0,0,0,0,0,0,0,0,0,0,0,0,-2.7216,-2.7218,0,-2.7351,-2.7353,-2.7354,-2.7428,-2.7428,-2.7428,-2.7428,-2.7563,-2.7566,-2.7569,0,0,0,0,0,0,0,0,0,0,0,0,0,-2.7022,-2.7025,-2.7216,-2.7218,-2.722,-2.7351,-2.7353,-2.7355,-2.7428,-2.7428,-2.7428,-2.7429,-2.7561,-2.7565,-2.757,0,0,0,0,0,0,0,0,0,0,0,0,0,-2.7126,-2.7026,-2.7216,-2.7272,-2.7279,-2.735,-2.7353,-2.7355,-2.7428,-2.7428,-2.7428,-2.7429,-2.756,-2.7565,-2.757,-2.7595,0,0,-2.7586,-2.7588,0,0,0,0,0,0,0,0,-2.712,-2.7133,-2.7262,-2.7268,-2.7276,-2.7373,-2.7333,-2.7435,-2.7428,-2.7371,-2.7428,-2.7429,-2.7499,-2.7509,-2.7534,-2.7602,-2.7607,-2.7586,-2.7589,-2.7591,-2.7593,0,0,0,0,0,0,0,-2.7113,-2.7128,-2.7269,-2.7264,-2.7272,-2.7291,-2.7306,-2.7353,-2.7431,-2.7376,-2.7382,-2.7397,-2.7503,-2.7529,-2.7537,-2.7609,-2.7586,-2.759,-2.7594,-2.7595,-2.7709,-2.7709,0,0,0,0,0,0,-2.7097,-2.7121,-2.7265,-2.7274,-2.7197,-2.7294,-2.7311,-2.7341,-2.7431,-2.7445,-2.7396,-2.74,-2.752,-2.7531,-2.7542,-2.7581,-2.7591,-2.7596,-2.7599,-2.7709,-2.7709,-2.7709,0,0,0,0,0,0,-2.7093,-2.7109,-2.726,-2.7199,-2.722,-2.7297,-2.7331,-2.7344,-2.737,-2.7447,-2.7461,-2.7408,-2.752,-2.7535,-2.7583,-2.7586,-2.7598,-2.7603,-2.7709,-2.7709,-2.7709,-2.7656,0,0,0,0,0,0,-2.7087,-2.7107,-2.7117,-2.7199,-2.7223,-2.7298,-2.7331,-2.7346,-2.7379,-2.7385,-2.7462,-2.7475,-2.7522,-2.7575,-2.7588,-2.7594,-2.7607,-2.7709,-2.7709,-2.7709,-2.7657,-2.7654,-2.7651,0,0,0,0,0,-2.7079,-2.7095,-2.7117,-2.7134,-2.7237,-2.7298,-2.7312,-2.7366,-2.7379,-2.739,-2.744,-2.7472,-2.7584,-2.7579,-2.7594,-2.7602,-2.7709,-2.7709,-2.7709,-2.7659,-2.7655,-2.7651,0,0,0,0,0,0,-2.7009,-2.7106,-2.7132,-2.7175,-2.7228,-2.731,-2.7326,-2.7359,-2.7409,-2.7412,-2.7477,-2.7494,-2.7536,-2.7573,-2.7566,-2.7633,-2.765,-2.7653,-2.7607,-2.7603,-2.76,-2.759,-2.7611,0,0,0,0,0,-2.6999,-2.7041,-2.7123,-2.7153,-2.7179,-2.7248,-2.7276,-2.7314,-2.7371,-2.7393,-2.7447,-2.75,-2.7548,-2.7577,-2.7625,-2.7664,-2.7683,-2.7676,-2.7673,-2.767,-2.7672,-2.7698,-2.7697,-2.7709,-2.7709,-2.7709,0,0,-2.6977,-2.7036,-2.7058,-2.714,-2.7186,-2.7228,-2.7266,-2.7308,-2.734,-2.7399,-2.7449,-2.749,-2.7554,-2.7598,-2.762,-2.7631,-2.7673,-2.767,-2.7666,-2.767,-2.7698,-2.7697,-2.7696,-2.7709,-2.7709,-2.7709,0,0,-2.696,-2.7008,-2.704,-2.7086,-2.7156,-2.7202,-2.721,-2.7289,-2.7319,-2.737,-2.7417,-2.7456,-2.7535,-2.7581,-2.7614,-2.7619,-2.7651,-2.7632,-2.7614,-2.764,-2.7639,-2.7638,-2.7642,-2.7643,-2.7634,-2.7634,-2.7634,0,-2.6924,-2.6991,-2.7051,-2.7093,-2.7129,-2.7187,-2.7221,-2.7262,-2.7343,-2.7366,-2.7377,-2.7482,-2.7529,-2.7586,-2.7588,-2.7612,-2.7624,-2.7624,-2.7634,-2.7634,-2.7635,-2.7639,-2.764,-2.7631,-2.7631,-2.7632,-2.7632,0,-2.6945,-2.699,-2.7008,-2.7088,-2.7126,-2.7162,-2.7229,-2.726,-2.7296,-2.7341,-2.7394,-2.7454,-2.7516,-2.7532,-2.7566,-2.7595,-2.76,-2.7622,-2.7641,-2.763,-2.7636,-2.7638,-2.7627,-2.7628,-2.7629,-2.763,0,0,-2.6884,-2.7001,-2.7006,-2.7045,-2.7129,-2.7165,-2.7205,-2.7269,-2.7295,-2.735,-2.7387,-2.7455,-2.7477,-2.7515,-2.7555,-2.7576,-2.758,-2.7596,-2.7599,-2.7593,-2.7619,-2.7603,-2.7604,-2.7602,-2.7603,-2.7603,-2.7615,0,-2.6881,-2.6958,-2.7016,-2.7071,-2.7115,-2.7173,-2.7209,-2.7264,-2.7309,-2.7353,-2.7402,-2.745,-2.7474,-2.7498,-2.7522,-2.7574,-2.7587,-2.7574,-2.7638,-2.7639,-2.7621,-2.7607,-2.759,-2.7597,-2.7617,-2.7617,-2.7618,0,-2.6886,-2.6943,-2.7003,-2.7086,-2.7106,-2.7137,-2.7202,-2.7244,-2.7308,-2.7339,-2.7384,-2.7426,-2.7473,-2.7487,-2.7553,-2.7544,-2.7573,-2.7603,-2.7605,-2.7613,-2.7628,-2.7616,-2.76,-2.7602,-2.7621,-2.7621,-2.7621,0,-2.6839,-2.693,-2.6979,-2.701,-2.7106,-2.7128,-2.7169,-2.7234,-2.727,-2.7326,-2.7351,-2.7411,-2.7444,-2.7489,-2.7547,-2.7552,-2.7608,-2.7627,-2.7636,-2.7635,-2.7645,-2.7644,-2.7635,-2.7662,-2.7662,-2.7662,-2.7662,0,-2.683,-2.6865,-2.696,-2.6989,-2.7032,-2.7098,-2.7138,-2.7183,-2.7242,-2.7282,-2.7335,-2.7372,-2.7446,-2.7492,-2.7537,-2.7587,-2.76,-2.7627,-2.7639,-2.7624,-2.762,-2.7644,-2.7646,-2.7662,-2.7662,-2.7662,-2.7662,0,-2.6784,-2.6849,-2.6906,-2.6995,-2.7018,-2.7045,-2.7122,-2.7153,-2.7202,-2.7253,-2.7269,-2.7345,-2.7403,-2.7465,-2.7542,-2.7573,-2.762,-2.7636,-2.7599,-2.7606,-2.7613,-2.7612,-2.762,-2.7625,-2.7646,-2.7646,-2.7646,0,-2.6774,-2.6803,-2.6896,-2.6929,-2.6969,-2.7019,-2.7058,-2.7125,-2.7162,-2.7241,-2.7264,-2.7326,-2.7379,-2.7468,-2.753,-2.759,-2.7609,-2.7608,-2.7618,-2.7602,-2.7611,-2.7609,-2.7614,-2.7604,-2.7604,-2.7603,-2.7603,0,-2.675,-2.6782,-2.6836,-2.6902,-2.6946,-2.7001,-2.7057,-2.708,-2.7159,-2.7198,-2.7259,-2.7301,-2.7382,-2.7444,-2.7512,-2.7555,-2.7592,-2.7599,-2.7605,-2.759,-2.7568,-2.7582,-2.7592,-2.7599,-2.7599,-2.7599,-2.76,-2.76,-2.6724,-2.6754,-2.6826,-2.6884,-2.6935,-2.6988,-2.7023,-2.7079,-2.7131,-2.7204,-2.724,-2.7301,-2.7369,-2.7466,-2.7507,-2.7556,-2.7568,-2.7575,-2.7577,-2.7578,-2.7575,-2.756,-2.7568,-2.7569,-2.7569,-2.7569,-2.7569,0,-2.6705,-2.6755,-2.6809,-2.6888,-2.6935,-2.6969,-2.7034,-2.7071,-2.7125,-2.7185,-2.7238,-2.7309,-2.737,-2.7439,-2.7504,-2.753,-2.7549,-2.7545,-2.7544,-2.7554,-2.756,-2.755,-2.7529,-2.7529,-2.7529,-2.7529,-2.7529,-2.7529,-2.6701,-2.6755,-2.6795,-2.6876,-2.6926,-2.6988,-2.7023,-2.7072,-2.7121,-2.7199,-2.7251,-2.7296,-2.7361,-2.7432,-2.749,-2.7508,-2.753,-2.7522,-2.7545,-2.755,-2.7553,-2.7556,-2.7547,-2.7525,-2.7525,-2.7535,-2.7535,-2.7535]}]]